Location: Unspecified
(0.0000°N, 0.0000°E)
Time: 18:19:02
(UTC+01:00)

Ariane H10-3 - Visible Passes

Search period start: 24 February 2017 00:00
Search period end: 06 March 2017 00:00
Orbit: 238 x 20391 km, 7.2° (Epoch: 23 February)

Date Brightness Start Highest point End Pass type
(mag) Time Alt. Az. Time Alt. Az. Time Alt. Az.
24 Feb 7.8 06:03:59 10° W 10:06:26 72° N 10:17:55 10° ENE visible
24 Feb 7.8 22:42:23 10° W 23:01:54 76° S 03:26:55 10° E visible
25 Feb 7.9 05:53:59 12° W 09:55:52 73° N 10:08:09 10° ENE visible
25 Feb 7.7 22:32:26 10° W 22:50:32 75° S 03:14:23 10° E visible
26 Feb 8.0 05:46:03 15° W 09:45:01 74° N 09:58:10 10° ENE visible
26 Feb 7.6 22:22:17 10° W 22:39:04 75° S 03:01:16 10° E visible
27 Feb 8.1 05:37:52 18° W 09:33:51 74° N 09:47:58 10° ENE visible
27 Feb 7.5 22:11:57 10° W 22:27:31 74° S 02:47:30 10° E visible
28 Feb 8.2 05:29:24 21° W 09:22:21 75° N 09:37:33 10° ENE visible
28 Feb 7.3 22:01:25 10° W 22:15:51 74° S 02:32:57 10° E visible
01 Mar 8.3 05:20:42 24° W 09:10:29 76° N 09:26:54 10° ENE visible
01 Mar 7.2 21:50:42 10° WSW 22:04:05 73° S 02:17:29 10° E visible
02 Mar 8.4 05:11:45 27° W 08:58:15 76° N 09:16:02 10° ENE visible
02 Mar 7.1 21:39:47 10° WSW 21:52:12 73° S 02:00:53 10° E visible
03 Mar 8.6 05:02:32 30° W 08:45:36 77° N 09:04:57 10° ENE visible
03 Mar 6.9 21:28:40 10° WSW 21:40:10 72° S 01:42:51 10° E visible
04 Mar 8.7 04:53:03 34° W 08:32:31 78° N 08:53:39 10° ENE visible
04 Mar 6.8 21:17:22 10° WSW 21:28:02 71° S 01:22:51 10° E visible
05 Mar 8.8 04:43:19 37° W 08:18:55 78° N 08:42:05 10° ENE visible
